KSLV-II R/B, 52896

Orbit data source: Space-Track

KSLV-II R/B, 52896 is space debris in SSO originally from a launch on Tue, 21 Jun 2022 UTC launched from the Naro Space Center, South Korea (NSC). Debris objects in space refer to the collection of defunct objects orbiting the Earth. Examples of debris include non-operational satellites, rocket bodies, and fragments generated from explosions, collisions, or faulty payload assembly.

Loading next visibility...
Identifier
52896, 2022-065C
Orbit
SSO
Country
Flag of KRKR / SKOR
Related business
Manufacturer
KARI
Mission
Spacecraft
Bus & Motor
Unknown
Mass
1,250 kg wet, 1,250 kg dry
Launch date (UTC)
2022-06-21 (4 years ago)
Launch vehicle
Unknown
Launch site
Naro Space Center, South Korea (NSC)
Object type
Payload
Rocket body
Debris
Shape & HBR
Cyl, 1.8 m
Radar Cross Section
10.006 m², Large (>1 m²)

Expand to show TLE details & history
Last TLE update: 2 days ago

TLE from 2 days ago
0 KSLV-II R/B
1 52896U 22065C   26171.44238269  .00000274  00000-0  59933-4 0  9996
2 52896  98.2650 331.2576 0016698 178.3665 181.7595 14.65374127213625
Epoch: 2026-06-20T10:37Z
TLE epoch observation values (Epoch: 2026-06-20T10:37:01.864Z)
Latitude
-0.00005°
Longitude
-96.65711°
Altitude
690.641 km
Speed
7.505 km/s
True Right ascension
22h 05m 01s
True Declination
0° 00' 00"
Sunlit
Object was in partial shadow at epoch
Visualization orbit readout
Latitude
Unknown
Longitude
Unknown
Altitude
Unknown
Speed
Unknown
Apparent Right ascension
Unknown
Apparent Declination
Unknown
Sunlit
N/A
Visualization observer readout
Local Sidereal Time
21:35:42
Azimuth
Unknown
Elevation
Unknown
Doppler factor
Unknown
Orbital elements
Apogee altitude
684.725 km
Perigee altitude
661.178 km
Semi-major axis
7,051.088 km
Eccentricity
0.00167
Inclination
98.265°
RAAN
331.2576°
Arg. of periapsis
178.3665°
True anomaly
181.75364°
Mean anomaly
181.7595°
Eccentric anomaly
181.75657°
Mean motion
3.66572 °/min
Orbital period
98.21 mins
BSTAR
0.000059933
Loading maneuver chart data...
Computing Atmospheric mass density...
Loading historical data...
Loading historical data...
Loading historical data...
Loading historical data...
Loading historical data...
Loading historical data...
Loading historical data...

Documentation

Showing up to 5 results
|